Weather in Ablatuyskiy Bor

Russia / Zabaykalsky Krai     51°11′15″N   112°13′15″E
temp.,
°C
wind,
m/s
gust,
m/s
humid.,
%
clouds,
%
prec.,
mm/h
press.,
hPa
HPBL,
m
21 april, wed
wed2100:00+7n11412 0.0 100411
03:00+5nw11535 0.0 100410
06:00+3w11603 0.0 100310
09:00+8wnw23465 0.0 1004415
12:00+13wnw56366 0.0 10041360
15:00+13nw6632100 0.0 10051720
18:00+13nw6633100 0.0 10061720
21:00+6n364297 0.0 1011153
22 april, thu
thu2200:00+1wnw22497 0.0 101654
03:00−1wnw234982 0.0 101991
06:00−3nw364969 0.0 1023162
09:000nw345098 0.0 1025877
12:00+5n342444 0.0 10231584
15:00+8nne4418100 0.0 10221912
18:00+9nne4416100 0.0 10222095
21:00+4ne4922100 0.0 1026218
23 april, fri
fri2300:00+4nne2631100 0.3 1031202
03:00+2ne5931100 0.4 1033551
06:00−1nne4783100 0.1 1038449
09:00+1ne3442100 0.1 1039849
12:00+5ne3331100 0.0 10391583
15:00+7ene222686 0.0 10372060
18:00+8ene2322100 0.0 10362276
21:00+4ne222869 0.0 103814
24 april, sat
sat2400:00+1n113533 0.0 104011
03:000wnw0036100 0.0 104110
06:000nne1136100 0.0 104110
09:00+3ne1128100 0.0 1040275
12:00+7ne2121100 0.0 1037761
15:00+11nne222077 0.0 10321493
18:00+12ne111769 0.0 10301177
21:00+8e2221100 0.0 103012
25 april, sun
sun2500:00+5ne2225100 0.0 103011
03:00+4ne1127100 0.0 102910
06:00+2ne1134100 0.0 102710
09:00+6nne113380 0.0 1025251
12:00+13nne1233100 0.0 1019674
15:00+18n2327100 0.0 10141482
18:00+20e24215 0.0 10092402
21:00+13ese223153 0.0 100812